| time (UTC) | temp F | wind direction | speed knots | gust knots | rain 1hr in | rain 24hr in | rain mn in | humidity % | barometer mb |
| 20260509124131 | 64 | 225 | 0.0 | 0.0 | 0.00 | 0.00 | 0.00 | 24 | 1010.0 |
| 20260509123618 | 64 | 225 | 0.0 | 0.0 | 0.00 | 0.00 | 0.00 | 24 | 1010.0 |
| 20260509122631 | 64 | 225 | 0.0 | 0.0 | 0.00 | 0.00 | 0.00 | 24 | 1010.0 |
| 20260509121131 | 64 | 225 | 0.0 | 0.0 | 0.00 | 0.00 | 0.00 | 24 | 1009.0 |
| 20260509120617 | 64 | 225 | 0.0 | 0.0 | 0.00 | 0.00 | 0.00 | 23 | 1009.0 |
| 20260509115632 | 65 | 225 | 0.0 | 0.0 | 0.00 | 0.00 | 0.00 | 23 | 1009.0 |
| 20260509113617 | 65 | 225 | 0.0 | 0.0 | 0.00 | 0.00 | 0.00 | 23 | 1009.0 |
| 20260509112632 | 65 | 225 | 0.0 | 0.0 | 0.00 | 0.00 | 0.00 | 23 | 1009.0 |
| 20260509110617 | 66 | 225 | 0.0 | 0.0 | 0.00 | 0.00 | 0.00 | 23 | 1009.0 |
| 20260509105631 | 66 | 225 | 0.0 | 0.0 | 0.00 | 0.00 | 0.00 | 23 | 1009.0 |
| 20260509103616 | 67 | 225 | 0.0 | 0.0 | 0.00 | 0.00 | 0.00 | 20 | 1008.0 |
| 20260509102631 | 67 | 225 | 0.0 | 2.6 | 0.00 | 0.00 | 0.00 | 20 | 1008.0 |
| 20260509100618 | 68 | 226 | 0.0 | 1.7 | 0.00 | 0.00 | 0.00 | 17 | 1008.0 |
| 20260509095631 | 69 | 270 | 0.0 | 0.0 | 0.00 | 0.00 | 0.00 | 17 | 1008.0 |
| 20260509093617 | 71 | 225 | 0.0 | 0.0 | 0.00 | 0.00 | 0.00 | 17 | 1008.0 |
| 20260509092632 | 72 | 225 | 0.0 | 1.7 | 0.00 | 0.00 | 0.00 | 16 | 1008.0 |
| 20260509091132 | 74 | 256 | 1.7 | 4.3 | 0.00 | 0.00 | 0.00 | 16 | 1008.0 |
| 20260509090616 | 74 | 225 | 0.0 | 1.7 | 0.00 | 0.00 | 0.00 | 16 | 1008.0 |
| 20260509085632 | 76 | 225 | 0.0 | 1.7 | 0.00 | 0.00 | 0.00 | 15 | 1008.0 |
| 20260509084130 | 77 | 225 | 0.0 | 1.7 | 0.00 | 0.00 | 0.00 | 15 | 1009.0 |
| 20260509083616 | 76 | 225 | 0.0 | 1.7 | 0.00 | 0.00 | 0.00 | 15 | 1008.0 |
| 20260509082631 | 76 | 225 | 0.0 | 2.6 | 0.00 | 0.00 | 0.00 | 15 | 1008.0 |
| 20260509080618 | 75 | 225 | 0.0 | 1.7 | 0.00 | 0.00 | 0.00 | 15 | 1008.0 |
| 20260509075631 | 76 | 225 | 0.0 | 2.6 | 0.00 | 0.00 | 0.00 | 15 | 1008.0 |
| 20260509074132 | 77 | 180 | 0.9 | 1.7 | 0.00 | 0.00 | 0.00 | 15 | 1008.0 |
| 20260509073617 | 78 | 315 | 0.0 | 2.6 | 0.00 | 0.00 | 0.00 | 15 | 1007.0 |
| 20260509072631 | 78 | 315 | 0.0 | 0.0 | 0.00 | 0.00 | 0.00 | 15 | 1007.0 |
| 20260509071130 | 79 | 270 | 0.0 | 1.7 | 0.00 | 0.00 | 0.00 | 15 | 1007.0 |
| 20260509070617 | 79 | 270 | 0.0 | 1.7 | 0.00 | 0.00 | 0.00 | 15 | 1007.0 |
| 20260509065630 | 78 | 270 | 1.7 | 2.6 | 0.00 | 0.00 | 0.00 | 15 | 1007.0 |
| 20260509064132 | 79 | 315 | 1.7 | 2.6 | 0.00 | 0.00 | 0.00 | 15 | 1007.0 |
| 20260509063617 | 80 | 315 | 0.0 | 0.0 | 0.00 | 0.00 | 0.00 | 15 | 1007.0 |
| 20260509062632 | 80 | 315 | 0.0 | 0.0 | 0.00 | 0.00 | 0.00 | 15 | 1007.0 |
| 20260509061131 | 80 | 315 | 0.0 | 1.7 | 0.00 | 0.00 | 0.00 | 15 | 1007.0 |
| 20260509060616 | 79 | 315 | 0.0 | 0.0 | 0.00 | 0.00 | 0.00 | 15 | 1007.0 |
| 20260509055632 | 79 | 315 | 0.0 | 5.2 | 0.00 | 0.00 | 0.00 | 15 | 1007.0 |
| 20260509054130 | 81 | 315 | 0.0 | 1.7 | 0.00 | 0.00 | 0.00 | 14 | 1006.0 |
| 20260509053616 | 80 | 225 | 0.0 | 1.7 | 0.00 | 0.00 | 0.00 | 14 | 1006.0 |
| 20260509050616 | 79 | 270 | 0.0 | 1.7 | 0.00 | 0.00 | 0.00 | 15 | 1007.0 |
| 20260509044132 | 75 | 237 | 0.0 | 1.7 | 0.00 | 0.00 | 0.00 | 15 | 1007.0 |
| 20260509043617 | 77 | 315 | 0.9 | 4.3 | 0.00 | 0.00 | 0.00 | 15 | 1007.0 |
| 20260509042631 | 77 | 315 | 0.0 | 1.7 | 0.00 | 0.00 | 0.00 | 15 | 1007.0 |
| 20260509040617 | 75 | 180 | 0.0 | 1.7 | 0.00 | 0.00 | 0.00 | 15 | 1007.0 |
| 20260509035630 | 74 | 231 | 0.0 | 2.6 | 0.00 | 0.00 | 0.00 | 16 | 1007.0 |
| 20260509034130 | 74 | 295 | 2.6 | 7.8 | 0.00 | 0.00 | 0.00 | 16 | 1007.0 |
| 20260509033616 | 74 | 315 | 1.7 | 6.1 | 0.00 | 0.00 | 0.00 | 16 | 1007.0 |
| 20260509032631 | 74 | 274 | 0.0 | 4.3 | 0.00 | 0.00 | 0.00 | 16 | 1007.0 |
| 20260509031131 | 75 | 292 | 0.0 | 2.6 | 0.00 | 0.00 | 0.00 | 17 | 1008.0 |
| 20260509030617 | 74 | 270 | 0.0 | 1.7 | 0.00 | 0.00 | 0.00 | 16 | 1008.0 |
| 20260509025630 | 72 | 270 | 0.0 | 0.0 | 0.00 | 0.00 | 0.00 | 19 | 1008.0 |
| 20260509023616 | 71 | 292 | 5.2 | 10.4 | 0.00 | 0.00 | 0.00 | 19 | 1008.0 |
| 20260509021131 | 70 | 271 | 1.7 | 2.6 | 0.00 | 0.00 | 0.00 | 22 | 1008.0 |
| 20260509020616 | 69 | 270 | 1.7 | 2.6 | 0.00 | 0.00 | 0.00 | 22 | 1008.0 |
| 20260509015631 | 69 | 135 | 0.0 | 1.7 | 0.00 | 0.00 | 0.00 | 22 | 1008.0 |
| 20260509013615 | 68 | 270 | 0.0 | 0.0 | 0.00 | 0.00 | 0.00 | 23 | 1008.0 |
| 20260509011131 | 66 | 295 | 1.7 | 2.6 | 0.00 | 0.00 | 0.00 | 24 | 1009.0 |
| 20260509010617 | 66 | 283 | 2.6 | 2.6 | 0.00 | 0.00 | 0.00 | 24 | 1008.0 |
| 20260509005630 | 66 | 287 | 4.3 | 4.3 | 0.00 | 0.00 | 0.00 | 24 | 1008.0 |
| 20260509004131 | 65 | 283 | 1.7 | 4.3 | 0.00 | 0.00 | 0.00 | 25 | 1008.0 |
| 20260509003617 | 64 | 310 | 1.7 | 4.3 | 0.00 | 0.00 | 0.00 | 25 | 1008.0 |
| 20260509000616 | 63 | 315 | 0.0 | 0.0 | 0.00 | 0.00 | 0.00 | 28 | 1008.0 |
| 20260508234131 | 62 | 273 | 2.6 | 2.6 | 0.00 | 0.00 | 0.00 | 29 | 1008.0 |
| 20260508233616 | 63 | 305 | 2.6 | 7.0 | 0.00 | 0.00 | 0.00 | 28 | 1008.0 |
| 20260508232630 | 62 | 270 | 0.0 | 1.7 | 0.00 | 0.00 | 0.00 | 31 | 1008.0 |
| 20260508231131 | 61 | 225 | 1.7 | 4.3 | 0.00 | 0.00 | 0.00 | 32 | 1008.0 |
| 20260508230616 | 61 | 305 | 4.3 | 6.1 | 0.00 | 0.00 | 0.00 | 32 | 1008.0 |
| 20260508225631 | 61 | 315 | 1.7 | 5.2 | 0.00 | 0.00 | 0.00 | 33 | 1008.0 |
| 20260508224130 | 60 | 315 | 5.2 | 4.3 | 0.00 | 0.00 | 0.00 | 34 | 1008.0 |
| 20260508223615 | 60 | 287 | 4.3 | 6.1 | 0.00 | 0.00 | 0.00 | 35 | 1009.0 |
| 20260508222629 | 59 | 306 | 4.3 | 5.2 | 0.00 | 0.00 | 0.00 | 35 | 1009.0 |
| 20260508221130 | 59 | 310 | 1.7 | 5.2 | 0.00 | 0.00 | 0.00 | 35 | 1008.0 |
| 20260508220617 | 59 | 295 | 4.3 | 4.3 | 0.00 | 0.00 | 0.00 | 35 | 1008.0 |
| 20260508215630 | 59 | 315 | 2.6 | 2.6 | 0.00 | 0.00 | 0.00 | 35 | 1008.0 |
| 20260508214130 | 59 | 270 | 1.7 | 1.7 | 0.00 | 0.00 | 0.00 | 36 | 1008.0 |
| 20260508213617 | 58 | 315 | 0.0 | 0.0 | 0.00 | 0.00 | 0.00 | 36 | 1008.0 |
| 20260508212630 | 58 | 315 | 1.7 | 4.3 | 0.00 | 0.00 | 0.00 | 36 | 1008.0 |
| 20260508211129 | 58 | 289 | 2.6 | 4.3 | 0.00 | 0.00 | 0.00 | 36 | 1007.0 |
| 20260508210616 | 58 | 315 | 1.7 | 2.6 | 0.00 | 0.00 | 0.00 | 35 | 1007.0 |
| 20260508205629 | 58 | 306 | 1.7 | 4.3 | 0.00 | 0.00 | 0.00 | 35 | 1007.0 |
| 20260508203618 | 58 | 285 | 2.6 | 4.3 | 0.00 | 0.00 | 0.00 | 35 | 1007.0 |
| 20260508202633 | 58 | 315 | 1.7 | 4.3 | 0.00 | 0.00 | 0.00 | 35 | 1007.0 |
| 20260508201133 | 58 | 315 | 4.3 | 2.6 | 0.00 | 0.00 | 0.00 | 35 | 1007.0 |
| 20260508200618 | 58 | 299 | 1.7 | 5.2 | 0.00 | 0.00 | 0.00 | 35 | 1007.0 |
| 20260508195633 | 58 | 315 | 0.0 | 1.7 | 0.00 | 0.00 | 0.00 | 35 | 1007.0 |
| 20260508194133 | 58 | 315 | 0.0 | 0.0 | 0.00 | 0.00 | 0.00 | 35 | 1006.0 |
| 20260508193617 | 58 | 225 | 0.0 | 1.7 | 0.00 | 0.00 | 0.00 | 35 | 1006.0 |
| 20260508192632 | 58 | 225 | 0.0 | 0.0 | 0.00 | 0.00 | 0.00 | 35 | 1006.0 |
| 20260508191133 | 59 | 232 | 1.7 | 4.3 | 0.00 | 0.00 | 0.00 | 33 | 1006.0 |
| 20260508190619 | 59 | 267 | 0.0 | 2.6 | 0.00 | 0.00 | 0.00 | 32 | 1006.0 |
| 20260508185632 | 60 | 315 | 2.6 | 6.1 | 0.00 | 0.00 | 0.00 | 30 | 1006.0 |
| 20260508184132 | 60 | 270 | 0.0 | 0.0 | 0.00 | 0.00 | 0.00 | 29 | 1006.0 |
| 20260508183619 | 60 | 308 | 0.0 | 2.6 | 0.00 | 0.00 | 0.00 | 29 | 1006.0 |
| 20260508182632 | 60 | 315 | 0.0 | 0.0 | 0.00 | 0.00 | 0.00 | 28 | 1006.0 |
| 20260508181132 | 61 | 270 | 0.0 | 0.0 | 0.00 | 0.00 | 0.00 | 27 | 1005.0 |
| 20260508180619 | 61 | 270 | 0.0 | 1.7 | 0.00 | 0.00 | 0.00 | 27 | 1005.0 |
| 20260508175633 | 61 | 270 | 0.0 | 2.6 | 0.00 | 0.00 | 0.00 | 27 | 1005.0 |
| 20260508174132 | 61 | 288 | 1.7 | 4.3 | 0.00 | 0.00 | 0.00 | 27 | 1005.0 |
| 20260508173617 | 60 | 308 | 2.6 | 2.6 | 0.00 | 0.00 | 0.00 | 26 | 1005.0 |
| 20260508172632 | 60 | 225 | 0.0 | 0.0 | 0.00 | 0.00 | 0.00 | 26 | 1005.0 |
| 20260508171132 | 61 | 225 | 0.0 | 0.0 | 0.00 | 0.00 | 0.00 | 26 | 1005.0 |
| 20260508170619 | 61 | 225 | 0.0 | 0.0 | 0.00 | 0.00 | 0.00 | 26 | 1005.0 |
| 20260508165633 | 60 | 270 | 0.0 | 2.6 | 0.00 | 0.00 | 0.00 | 26 | 1005.0 |
| 20260508164132 | 61 | 208 | 0.0 | 1.7 | 0.00 | 0.00 | 0.00 | 27 | 1005.0 |
| 20260508163619 | 61 | 270 | 0.0 | 5.2 | 0.00 | 0.00 | 0.00 | 27 | 1005.0 |
| 20260508162632 | 61 | 270 | 0.0 | 1.7 | 0.00 | 0.00 | 0.00 | 27 | 1005.0 |
| 20260508161132 | 61 | 270 | 0.0 | 2.6 | 0.00 | 0.00 | 0.00 | 27 | 1005.0 |
| 20260508160618 | 61 | 270 | 0.0 | 0.0 | 0.00 | 0.00 | 0.00 | 27 | 1005.0 |
| 20260508155633 | 61 | 270 | 1.7 | 1.7 | 0.00 | 0.00 | 0.00 | 26 | 1004.2 |
| 20260508154131 | 61 | 315 | 1.7 | 2.6 | 0.00 | 0.00 | 0.00 | 26 | 1004.0 |
| 20260508153618 | 61 | 315 | 0.0 | 1.7 | 0.00 | 0.00 | 0.00 | 26 | 1004.0 |
| 20260508152631 | 61 | 315 | 0.0 | 2.6 | 0.00 | 0.00 | 0.00 | 26 | 1004.0 |
| 20260508151131 | 61 | 315 | 0.0 | 1.7 | 0.00 | 0.00 | 0.00 | 26 | 1004.0 |
| 20260508150618 | 62 | 315 | 0.0 | 1.7 | 0.00 | 0.00 | 0.00 | 26 | 1004.0 |
| 20260508145632 | 62 | 315 | 0.0 | 2.6 | 0.00 | 0.00 | 0.00 | 25 | 1004.0 |
| 20260508144133 | 62 | 315 | 0.0 | 0.0 | 0.00 | 0.00 | 0.00 | 26 | 1004.2 |
| 20260508143617 | 62 | 315 | 0.0 | 0.0 | 0.00 | 0.00 | 0.00 | 26 | 1004.0 |
| 20260508142632 | 62 | 315 | 0.0 | 0.0 | 0.00 | 0.00 | 0.00 | 26 | 1004.0 |
| 20260508140617 | 62 | 315 | 0.0 | 1.7 | 0.00 | 0.00 | 0.00 | 25 | 1004.0 |
| 20260508134132 | 63 | 285 | 0.0 | 4.3 | 0.00 | 0.00 | 0.00 | 25 | 1004.0 |
| 20260508133617 | 63 | 306 | 0.0 | 2.6 | 0.00 | 0.00 | 0.00 | 25 | 1004.0 |
| 20260508132632 | 63 | 296 | 1.7 | 2.6 | 0.00 | 0.00 | 0.00 | 26 | 1004.0 |
| 20260508130618 | 63 | 270 | 0.0 | 2.6 | 0.00 | 0.00 | 0.00 | 26 | 1004.0 |